TimeCDT,TemperatureF,Dew PointF,Humidity,Sea Level PressureIn,VisibilityMPH,Wind Direction,Wind SpeedMPH,Gust SpeedMPH,PrecipitationIn,Events,Conditions,WindDirDegrees,DateUTC
12:52 AM,44.1,28.0,53,29.87,10.0,ESE,6.9,-,N/A,,Clear,110,2012-10-03 05:52:00
1:52 AM,44.1,30.0,58,29.88,10.0,ESE,6.9,-,N/A,,Clear,110,2012-10-03 06:52:00
2:52 AM,41.0,30.0,65,29.88,10.0,ESE,6.9,-,N/A,,Clear,110,2012-10-03 07:52:00
3:52 AM,43.0,30.9,62,29.87,10.0,ESE,8.1,-,N/A,,Clear,110,2012-10-03 08:52:00
4:52 AM,43.0,32.0,65,29.87,10.0,ESE,8.1,-,N/A,,Clear,110,2012-10-03 09:52:00
5:52 AM,41.0,32.0,70,29.88,10.0,ESE,8.1,-,N/A,,Clear,110,2012-10-03 10:52:00
6:52 AM,41.0,32.0,70,29.89,10.0,ESE,8.1,-,N/A,,Clear,110,2012-10-03 11:52:00
7:52 AM,43.0,32.0,65,29.88,10.0,ESE,10.4,-,N/A,,Clear,110,2012-10-03 12:52:00
8:52 AM,48.0,34.0,58,29.88,10.0,ESE,10.4,-,N/A,,Clear,120,2012-10-03 13:52:00
9:52 AM,57.9,35.1,42,29.86,10.0,SE,11.5,-,N/A,,Clear,140,2012-10-03 14:52:00
10:52 AM,64.9,36.0,34,29.85,10.0,SE,15.0,-,N/A,,Clear,130,2012-10-03 15:52:00
11:52 AM,71.1,37.0,29,29.84,10.0,SSE,15.0,-,N/A,,Clear,160,2012-10-03 16:52:00
12:52 PM,75.9,36.0,23,29.81,10.0,SSE,16.1,20.7,N/A,,Clear,160,2012-10-03 17:52:00
1:52 PM,80.1,33.1,18,29.77,10.0,South,20.7,27.6,N/A,,Clear,180,2012-10-03 18:52:00
2:52 PM,81.0,34.0,18,29.75,10.0,South,20.7,29.9,N/A,,Clear,180,2012-10-03 19:52:00
3:52 PM,81.0,30.9,16,29.73,10.0,South,18.4,31.1,N/A,,Clear,170,2012-10-03 20:52:00
4:52 PM,81.0,28.9,15,29.73,10.0,South,24.2,34.5,N/A,,Clear,180,2012-10-03 21:52:00
5:52 PM,79.0,30.9,17,29.76,10.0,South,20.7,25.3,N/A,,Clear,180,2012-10-03 22:52:00
6:52 PM,75.0,32.0,21,29.77,10.0,SSE,13.8,-,N/A,,Clear,160,2012-10-03 23:52:00
7:52 PM,71.1,34.0,26,29.77,10.0,SSE,11.5,-,N/A,,Clear,150,2012-10-04 00:52:00
8:52 PM,68.0,34.0,28,29.81,10.0,SSE,9.2,-,N/A,,Clear,160,2012-10-04 01:52:00
9:52 PM,64.4,35.6,34,29.85,10.0,SW,5.8,-,N/A,,Clear,220,2012-10-04 02:52:00
10:17 PM,64.4,41.0,42,29.87,10.0,WNW,17.3,21.9,N/A,,Clear,300,2012-10-04 03:17:00
10:34 PM,62.6,39.2,42,29.88,10.0,WNW,16.1,-,N/A,,Mostly Cloudy,300,2012-10-04 03:34:00
10:52 PM,60.1,39.0,46,29.89,10.0,WNW,17.3,25.3,N/A,,Overcast,300,2012-10-04 03:52:00
11:24 PM,57.2,39.2,51,29.93,10.0,WNW,18.4,29.9,N/A,,Scattered Clouds,300,2012-10-04 04:24:00
11:52 PM,55.0,39.9,57,29.94,10.0,WNW,23.0,34.5,N/A,,Clear,290,2012-10-04 04:52:00